Location: Unspecified
(53.8164°N, 0.0000°E)
Time: 01:10:25
(UTC+00:00)

CZ-6A DEB - Visible Passes

Search period start: 04 April 2026 00:00
Search period end: 14 April 2026 00:00
Orbit: 589 x 797 km, 89.0° (Epoch: 29 March)

Date Brightness Start Highest point End Pass type
(mag) Time Alt. Az. Time Alt. Az. Time Alt. Az.
5 Apr ? 04:07:17 10° ESE 04:09:53 15° ENE 04:12:25 10° NE visible
5 Apr ? 19:14:44 10° NW 19:16:08 11° WNW 19:17:31 10° W visible
7 Apr ? 03:50:10 10° E 03:52:00 12° ENE 03:53:48 10° NE visible
8 Apr ? 04:27:57 10° SE 04:31:50 27° ENE 04:35:34 10° NNE visible
10 Apr ? 04:10:21 10° SE 04:13:53 23° ENE 04:17:18 10° NNE visible
12 Apr ? 03:52:48 10° ESE 03:55:55 19° ENE 03:58:58 10° NNE visible
